Date String (YYYY-MM-DD hh:mm:ss) UTC,Instrument flags,Ambient pressure (hPa),Sample flow (lpm),Bypass flow (lpm),Sample temperature (°C),Ambient temperature (°C),ASC tube jacket temperature (°C),LED temperature (°C),Box temperature (°C),Sample RH (%),Span deviation,Mass concentration (μg/m³),Mass concentration (μg/m³),Mass concentration (μg/m³)
DateTimeUTC,F1_M11,P_M11,Q1_M11,Q2_M11,T1_M11,T2_M11,T3_M11,T4_M11,T5_M11,U1_M11,ZSPAN_M11,X0_M11,X2_M11,X1_M11
2021-10-14 18:00:00,,0823.7,5.00,0.00,24.8,24.1,00.0,33.9,26.7,14.9,0000.0,0009.26,0004.77,0004.33
2021-10-14 18:01:00,,0823.7,4.99,0.00,24.9,24.1,00.0,33.9,26.7,14.9,0000.0,0009.31,0004.79,0004.34
2021-10-14 18:02:00,,0823.7,5.00,0.00,24.9,24.1,00.0,33.9,26.7,15.0,0000.0,0009.81,0004.77,0004.34
2021-10-14 18:03:00,,0823.6,5.01,0.00,24.9,24.1,00.0,33.9,26.8,14.9,0000.0,0009.63,0004.75,0004.34
2021-10-14 18:04:00,,0823.7,4.99,0.00,24.9,24.1,00.0,33.9,26.8,15.0,0000.0,0009.59,0004.75,0004.33
2021-10-14 18:05:00,,0823.6,4.99,0.00,24.9,24.1,00.0,33.9,26.8,14.9,0000.0,0009.54,0004.76,0004.34
2021-10-14 18:06:00,,0823.7,5.01,0.00,24.9,24.1,00.0,33.9,26.8,14.9,0000.0,0009.43,0004.73,0004.34
2021-10-14 18:07:00,,0823.6,5.00,0.00,24.9,24.1,00.0,33.9,26.8,15.0,0000.0,0009.38,0004.70,0004.33
2021-10-14 18:08:00,,0823.6,4.99,0.00,24.9,24.1,00.0,33.9,26.8,15.0,0000.0,0009.40,0004.70,0004.32
2021-10-14 18:09:00,,0823.5,5.00,0.00,24.9,24.1,00.0,33.9,26.8,14.9,0000.0,0009.39,0004.67,0004.30
2021-10-14 18:10:00,,0823.5,5.01,0.00,25.0,24.1,00.0,34.0,26.8,14.7,0000.0,0008.79,0004.66,0004.29
2021-10-14 18:11:00,,0823.4,5.00,0.00,24.9,24.1,00.0,34.0,26.8,14.8,0000.0,0008.76,0004.65,0004.27
2021-10-14 18:12:00,,0823.4,5.01,0.00,25.0,24.1,00.0,34.0,26.8,14.8,0000.0,0008.79,0004.62,0004.24
2021-10-14 18:13:00,,0823.4,4.99,0.00,25.0,24.1,00.0,34.0,26.8,14.9,0000.0,0007.69,0004.60,0004.23
2021-10-14 18:14:00,,0823.4,5.00,0.00,25.0,24.2,00.0,34.0,26.8,14.9,0000.0,0007.76,0004.60,0004.21
2021-10-14 18:15:00,,0823.5,5.00,0.00,25.0,24.2,00.0,34.0,26.8,14.8,0000.0,0007.97,0004.61,0004.20
2021-10-14 18:16:00,,0823.4,5.00,0.00,25.0,24.2,00.0,34.0,26.8,14.8,0000.0,0008.52,0004.65,0004.18
2021-10-14 18:17:00,,0823.5,5.00,0.00,25.0,24.2,00.0,34.0,26.9,14.6,0000.0,0008.66,0004.66,0004.17
2021-10-14 18:18:00,,0823.5,5.00,0.00,25.0,24.2,00.0,34.0,26.9,14.7,0000.0,0008.71,0004.65,0004.15
2021-10-14 18:19:00,,0823.4,4.99,0.00,25.0,24.2,00.0,34.0,26.9,14.6,0000.0,0008.86,0004.65,0004.14
2021-10-14 18:20:00,,0823.5,5.02,0.00,25.0,24.2,00.0,34.0,26.9,14.6,0000.0,0008.84,0004.65,0004.14
2021-10-14 18:21:00,,0823.4,4.98,0.00,25.0,24.2,00.0,34.1,26.9,14.6,0000.0,0008.85,0004.65,0004.14
2021-10-14 18:22:00,,0823.4,4.99,0.00,25.0,24.2,00.0,34.0,26.9,14.7,0000.0,0008.88,0004.68,0004.15
2021-10-14 18:23:00,,0823.4,5.01,0.00,25.0,24.2,00.0,34.1,26.9,14.8,0000.0,0009.26,0004.73,0004.15
2021-10-14 18:24:00,,0823.4,5.00,0.00,25.0,24.2,00.0,34.1,26.9,14.7,0000.0,0009.71,0004.76,0004.16
2021-10-14 18:25:00,,0823.4,5.01,0.00,25.0,24.2,00.0,34.1,26.9,14.5,0000.0,0009.53,0004.75,0004.17
2021-10-14 18:26:00,,0823.3,5.01,0.00,25.1,24.2,00.0,34.1,26.9,14.6,0000.0,0009.31,0004.71,0004.17
2021-10-14 18:27:00,,0823.4,5.00,0.00,25.1,24.2,00.0,34.1,26.9,14.9,0000.0,0009.34,0004.67,0004.17
2021-10-14 18:28:00,,0823.3,5.00,0.00,25.1,24.2,00.0,34.1,26.9,14.7,0000.0,0009.25,0004.67,0004.18
2021-10-14 18:29:00,,0823.4,4.99,0.00,25.1,24.2,00.0,34.1,26.9,14.7,0000.0,0009.48,0004.67,0004.19
2021-10-14 18:30:00,,0823.4,5.01,0.00,25.1,24.2,00.0,34.1,26.9,15.0,0000.0,0009.47,0004.66,0004.19
2021-10-14 18:31:00,,0823.4,4.99,0.00,25.1,24.2,00.0,34.1,27.0,14.8,0000.0,0009.65,0004.69,0004.20
2021-10-14 18:32:00,,0823.3,5.01,0.00,25.1,24.2,00.0,34.1,26.9,14.7,0000.0,0009.80,0004.72,0004.19
2021-10-14 18:33:00,,0823.3,5.01,0.00,25.1,24.2,00.0,34.1,26.9,14.7,0000.0,0009.74,0004.68,0004.19
2021-10-14 18:34:00,,0823.4,4.99,0.00,25.1,24.2,00.0,34.1,26.9,14.7,0000.0,0009.34,0004.63,0004.19
2021-10-14 18:35:00,,0823.3,5.00,0.00,25.1,24.3,00.0,34.1,27.0,15.1,0000.0,0008.95,0004.61,0004.19
2021-10-14 18:36:00,,0823.2,5.01,0.00,25.1,24.3,00.0,34.1,27.0,15.0,0000.0,0009.03,0004.64,0004.18
2021-10-14 18:37:00,,0823.2,4.98,0.00,25.1,24.3,00.0,34.1,27.0,14.9,0000.0,0009.29,0004.69,0004.18
2021-10-14 18:38:00,,0823.2,5.01,0.00,25.1,24.3,00.0,34.2,27.0,14.8,0000.0,0009.19,0004.68,0004.18
2021-10-14 18:39:00,,0823.2,5.00,0.00,25.1,24.3,00.0,34.2,27.0,14.6,0000.0,0009.39,0004.68,0004.19
2021-10-14 18:40:00,,0823.1,4.98,0.00,25.1,24.3,00.0,34.2,27.0,14.7,0000.0,0009.19,0004.70,0004.19
2021-10-14 18:41:00,,0823.1,5.02,0.00,25.1,24.2,00.0,34.2,26.9,14.8,0000.0,0009.19,0004.74,0004.20
2021-10-14 18:42:00,,0823.1,4.99,0.00,25.0,24.0,00.0,34.2,26.7,14.9,0000.0,0009.08,0004.73,0004.20
2021-10-14 18:43:00,,0823.1,4.99,0.00,24.9,23.8,00.0,34.1,26.6,14.9,0000.0,0009.01,0004.73,0004.20
2021-10-14 18:44:00,,0823.1,5.00,0.00,24.8,23.7,00.0,34.1,26.5,14.9,0000.0,0009.12,0004.74,0004.21
2021-10-14 18:45:00,,0823.1,5.01,0.00,24.8,23.7,00.0,34.1,26.6,14.9,0000.0,0009.27,0004.78,0004.22
2021-10-14 18:46:00,,0823.1,4.99,0.00,24.8,23.8,00.0,34.1,26.6,14.9,0000.0,0009.44,0004.80,0004.23
2021-10-14 18:47:00,,0823.1,5.00,0.00,24.8,23.8,00.0,34.1,26.6,14.9,0000.0,0010.21,0004.82,0004.24
2021-10-14 18:48:00,,0823.1,5.00,0.00,24.8,23.8,00.0,34.0,26.6,15.0,0000.0,0010.22,0004.80,0004.24
2021-10-14 18:49:00,,0823.1,5.00,0.00,24.8,23.8,00.0,34.0,26.6,15.0,0000.0,0009.99,0004.82,0004.24
2021-10-14 18:50:00,,0823.1,5.00,0.00,24.8,23.8,00.0,34.0,26.6,14.9,0000.0,0009.59,0004.85,0004.24
2021-10-14 18:51:00,,0823.0,5.00,0.00,24.8,23.9,00.0,34.0,26.6,14.8,0000.0,0009.69,0004.85,0004.25
2021-10-14 18:52:00,,0823.0,5.01,0.00,24.8,23.9,00.0,34.0,26.6,14.9,0000.0,0009.61,0004.83,0004.25
2021-10-14 18:53:00,,0823.0,4.99,0.00,24.8,23.9,00.0,34.0,26.6,14.9,0000.0,0009.78,0004.83,0004.26
2021-10-14 18:54:00,,0823.0,5.01,0.00,24.8,23.9,00.0,34.0,26.6,14.9,0000.0,0010.81,0004.82,0004.27
2021-10-14 18:55:00,,0823.0,4.99,0.00,24.8,24.0,00.0,33.9,26.6,14.9,0000.0,0011.69,0004.81,0004.25
2021-10-14 18:56:00,,0823.0,5.01,0.00,24.8,24.0,00.0,33.9,26.6,14.9,0000.0,0011.62,0004.78,0004.24
2021-10-14 18:57:00,,0823.0,4.99,0.00,24.8,24.0,00.0,33.9,26.6,14.9,0000.0,0011.71,0004.77,0004.23
2021-10-14 18:58:00,,0822.9,5.01,0.00,24.8,24.0,00.0,33.9,26.6,14.9,0000.0,0011.10,0004.74,0004.23
2021-10-14 18:59:00,,0822.9,5.00,0.00,24.8,24.0,00.0,33.9,26.6,14.9,0000.0,0010.86,0004.73,0004.22
